This demonstration page uses our WeatherBlox Daily Observations layout. Learn more.

39.92423, -83.80882

Hourly Observations for December 13, 2017

Temp ( °F °C ) Dew Point ( °F °C ) Humidity (%) Winds ( mph kmh ) Pressure ( in mb ) Visibility ( mi km ) Precip ( " mm )
12:56 am 00:56 Cloudy 19 -7.2 9 -12.8 65 65 W 12 19 29.98 1015 10 16.0934 0 0
1:56 am 01:56 Cloudy 17 -8.3 9 -12.8 70 70 W 10 17 29.97 1015 10 16.0934 0 0
2:56 am 02:56 Clear 13 -10.6 7 -13.9 77 77 W 9 15 29.98 1015 10 16.0934 0 0
3:56 am 03:56 Clear 12 -11.1 7 -13.9 80 80 WSW 7 11 29.97 1015 10 16.0934 0 0
4:56 am 04:56 Mostly Cloudy 12 -11.1 8 -13.3 84 84 SW 5 7 29.96 1015 10 16.0934 0 0
5:56 am 05:56 Cloudy 16 -8.9 11 -11.7 80 80 SW 8 13 29.95 1014 10 16.0934 0 0
6:56 am 06:56 Cloudy 17 -8.3 11 -11.7 77 77 SSW 6 9 29.94 1014 10 16.0934 0 0
7:56 am 07:56 Cloudy 18 -7.8 11 -11.7 74 74 SSW 6 9 29.93 1013 10 16.0934 0 0
8:56 am 08:56 Cloudy 19 -7.2 11 -11.7 71 71 SSW 9 15 29.91 1013 10 16.0934 0 0
9:56 am 09:56 Cloudy 21 -6.1 10 -12.2 62 62 S 8 13 29.86 1011 10 16.0934 0 0
10:56 am 10:56 Cloudy 23 -5 12 -11.1 63 63 SSW 10 17 29.84 1011 10 16.0934 0 0
11:56 am 11:56 Cloudy 25 -3.9 13 -10.6 60 60 S 13 20 29.75 1008 10 16.0934 0 0
12:56 pm 12:56 Cloudy 26 -3.3 12 -11.1 55 55 SSE 14 22 29.67 1005 10 16.0934 0 0
1:56 pm 13:56 Cloudy 27 -2.8 14 -10 58 58 S 16 26 29.6 1002 10 16.0934 0 0
2:56 pm 14:56 Mostly Cloudy 29 -1.7 15 -9.4 56 56 SSE 15 24 29.53 1000 10 16.0934 0 0
3:56 pm 15:56 Sunny 30 -1.1 15 -9.4 54 54 S 14 22 29.53 1000 10 16.0934 0 0
4:56 pm 16:56 Cloudy 31 -0.6 16 -8.9 54 54 S 9 15 29.48 998 10 16.0934 0 0
5:56 pm 17:56 Cloudy with Light Wintry Mix 32 0 21 -6.1 64 64 SW 15 24 29.48 998 10 16.0934 0 0.0254
6:56 pm 18:56 Cloudy 34 1.1 18 -7.8 52 52 SSW 12 19 29.45 997 10 16.0934 0 0.0254
7:56 pm 19:56 Cloudy with Light Rain 36 2.2 20 -6.7 52 52 SW 12 19 29.43 997 10 16.0934 0 0.0254
8:56 pm 20:56 Cloudy 37 2.8 22 -5.6 54 54 SW 16 26 29.41 996 10 16.0934 0 0.0254
9:44 pm 21:44 Cloudy with Light Rain 37 3 30 -1 75 75 W 25 41 29.47 998 9 14.48406 0 0.0254
9:56 pm 21:56 Cloudy with Light Rain 37 2.8 32 0 82 82 W 25 41 29.45 997 10 16.0934 0 0.0254
10:56 pm 22:56 Cloudy 34 1.1 29 -1.7 82 82 W 28 44 29.5 999 10 16.0934 0 0.0254
11:56 pm 23:56 Cloudy 33 0.6 26 -3.3 75 75 WNW 28 44 29.54 1000 10 16.0934 0 0

Powered by AerisWeather